Date String (YYYY-MM-DD hh:mm:ss) UTC,Instrument flags,Ambient pressure (hPa),Sample flow (lpm),Bypass flow (lpm),Sample temperature (°C),Ambient temperature (°C),ASC tube jacket temperature (°C),LED temperature (°C),Box temperature (°C),Sample RH (%),Span deviation,Mass concentration (μg/m³),Mass concentration (μg/m³),Mass concentration (μg/m³)
DateTimeUTC,F1_M11,P_M11,Q1_M11,Q2_M11,T1_M11,T2_M11,T3_M11,T4_M11,T5_M11,U1_M11,ZSPAN_M11,X0_M11,X2_M11,X1_M11
2021-11-03 14:00:00,,0832.7,5.02,0.00,23.2,22.4,00.0,32.3,25.0,22.2,0000.0,0003.22,0002.84,0002.64
2021-11-03 14:01:00,,0832.8,4.98,0.00,23.2,22.4,00.0,32.3,25.0,22.2,0000.0,0003.32,0002.90,0002.69
2021-11-03 14:02:00,,0832.9,5.00,0.00,23.2,22.4,00.0,32.3,25.0,22.2,0000.0,0003.30,0002.92,0002.73
2021-11-03 14:03:00,,0832.9,5.01,0.00,23.2,22.3,00.0,32.3,25.0,22.1,0000.0,0003.32,0002.93,0002.75
2021-11-03 14:04:00,,0832.9,4.98,0.00,23.2,22.3,00.0,32.3,25.0,22.0,0000.0,0003.30,0002.91,0002.75
2021-11-03 14:05:00,,0832.8,5.00,0.00,23.3,22.4,00.0,32.3,25.0,22.0,0000.0,0003.38,0002.93,0002.75
2021-11-03 14:06:00,,0832.9,5.01,0.00,23.3,22.4,00.0,32.3,25.0,21.9,0000.0,0003.33,0002.89,0002.73
2021-11-03 14:07:00,,0832.8,5.01,0.00,23.3,22.4,00.0,32.3,25.0,21.9,0000.0,0003.30,0002.86,0002.70
2021-11-03 14:08:00,,0832.8,4.99,0.00,23.3,22.4,00.0,32.3,25.0,21.9,0000.0,0003.25,0002.83,0002.67
2021-11-03 14:09:00,,0832.8,5.00,0.00,23.3,22.4,00.0,32.3,25.0,21.9,0000.0,0003.09,0002.76,0002.61
2021-11-03 14:10:00,,0832.8,5.01,0.00,23.3,22.4,00.0,32.3,25.0,21.8,0000.0,0002.95,0002.65,0002.52
2021-11-03 14:11:00,,0832.8,5.00,0.00,23.3,22.4,00.0,32.3,25.0,21.7,0000.0,0002.87,0002.56,0002.43
2021-11-03 14:12:00,,0832.8,4.99,0.00,23.3,22.4,00.0,32.3,25.0,21.7,0000.0,0002.72,0002.47,0002.36
2021-11-03 14:13:00,,0832.9,5.00,0.00,23.3,22.4,00.0,32.3,25.0,21.6,0000.0,0002.60,0002.39,0002.28
2021-11-03 14:14:00,,0832.8,5.01,0.00,23.3,22.3,00.0,32.3,25.0,21.6,0000.0,0002.53,0002.32,0002.23
2021-11-03 14:15:00,,0832.8,4.99,0.00,23.3,22.4,00.0,32.3,25.1,21.6,0000.0,0002.48,0002.27,0002.17
2021-11-03 14:16:00,,0832.9,5.00,0.00,23.3,22.4,00.0,32.3,25.1,21.6,0000.0,0002.44,0002.23,0002.13
2021-11-03 14:17:00,,0833.0,5.00,0.00,23.3,22.4,00.0,32.3,25.1,21.6,0000.0,0002.47,0002.20,0002.11
2021-11-03 14:18:00,,0833.1,5.00,0.00,23.3,22.4,00.0,32.3,25.1,21.6,0000.0,0002.47,0002.21,0002.11
2021-11-03 14:19:00,,0833.1,5.02,0.00,23.3,22.4,00.0,32.3,25.0,21.7,0000.0,0002.44,0002.19,0002.09
2021-11-03 14:20:00,,0833.1,4.99,0.00,23.3,22.4,00.0,32.3,25.0,21.8,0000.0,0002.45,0002.18,0002.08
2021-11-03 14:21:00,,0833.1,5.01,0.00,23.3,22.4,00.0,32.3,25.0,21.8,0000.0,0002.42,0002.16,0002.07
2021-11-03 14:22:00,,0833.0,4.99,0.00,23.3,22.4,00.0,32.3,25.0,21.8,0000.0,0002.37,0002.13,0002.04
2021-11-03 14:23:00,,0833.0,5.01,0.00,23.3,22.4,00.0,32.3,25.0,21.9,0000.0,0002.38,0002.11,0002.02
2021-11-03 14:24:00,,0833.0,4.99,0.00,23.3,22.4,00.0,32.3,25.0,21.9,0000.0,0002.46,0002.11,0002.00
2021-11-03 14:25:00,,0833.0,5.00,0.00,23.3,22.4,00.0,32.3,25.0,21.9,0000.0,0002.50,0002.13,0002.00
2021-11-03 14:26:00,,0833.0,5.01,0.00,23.3,22.4,00.0,32.3,25.0,22.0,0000.0,0002.54,0002.14,0002.00
2021-11-03 14:27:00,,0833.1,5.00,0.00,23.3,22.4,00.0,32.3,25.1,22.0,0000.0,0002.56,0002.15,0002.00
2021-11-03 14:28:00,,0833.0,5.00,0.00,23.3,22.4,00.0,32.3,25.1,22.0,0000.0,0002.54,0002.16,0001.99
2021-11-03 14:29:00,,0833.1,5.00,0.00,23.3,22.4,00.0,32.3,25.1,22.1,0000.0,0002.57,0002.16,0001.99
2021-11-03 14:30:00,,0833.1,5.00,0.00,23.3,22.4,00.0,32.3,25.1,22.3,0000.0,0002.65,0002.21,0002.02
2021-11-03 14:31:00,,0833.1,4.99,0.00,23.3,22.4,00.0,32.3,25.1,22.3,0000.0,0002.73,0002.23,0002.05
2021-11-03 14:32:00,,0833.1,5.01,0.00,23.3,22.4,00.0,32.3,25.1,22.5,0000.0,0002.80,0002.27,0002.09
2021-11-03 14:33:00,,0833.1,5.00,0.00,23.3,22.4,00.0,32.3,25.0,22.6,0000.0,0002.95,0002.37,0002.16
2021-11-03 14:34:00,,0833.1,5.02,0.00,23.3,22.4,00.0,32.3,25.1,22.7,0000.0,0002.99,0002.43,0002.23
2021-11-03 14:35:00,,0833.1,4.99,0.00,23.3,22.4,00.0,32.3,25.1,22.5,0000.0,0002.96,0002.46,0002.28
2021-11-03 14:36:00,,0833.1,5.02,0.00,23.3,22.5,00.0,32.3,25.1,22.2,0000.0,0003.02,0002.49,0002.30
2021-11-03 14:37:00,,0833.1,5.00,0.00,23.4,22.5,00.0,32.4,25.1,22.1,0000.0,0003.03,0002.49,0002.30
2021-11-03 14:38:00,,0833.1,4.99,0.00,23.4,22.5,00.0,32.4,25.1,22.1,0000.0,0002.99,0002.48,0002.31
2021-11-03 14:39:00,,0833.2,5.00,0.00,23.4,22.5,00.0,32.4,25.1,22.2,0000.0,0002.93,0002.47,0002.32
2021-11-03 14:40:00,,0833.1,5.00,0.00,23.4,22.5,00.0,32.4,25.1,22.4,0000.0,0003.02,0002.52,0002.34
2021-11-03 14:41:00,,0833.2,4.98,0.00,23.4,22.5,00.0,32.4,25.2,22.5,0000.0,0003.07,0002.55,0002.34
2021-11-03 14:42:00,,0833.2,5.00,0.00,23.4,22.5,00.0,32.4,25.2,22.4,0000.0,0003.08,0002.56,0002.35
2021-11-03 14:43:00,,0833.2,5.00,0.00,23.4,22.5,00.0,32.4,25.2,22.4,0000.0,0003.01,0002.56,0002.34
2021-11-03 14:44:00,,0833.3,5.00,0.00,23.4,22.5,00.0,32.4,25.2,22.6,0000.0,0002.93,0002.52,0002.32
2021-11-03 14:45:00,,0833.3,5.01,0.00,23.4,22.5,00.0,32.4,25.2,23.1,0000.0,0002.86,0002.48,0002.27
2021-11-03 14:46:00,,0833.3,4.99,0.00,23.5,22.5,00.0,32.4,25.2,23.2,0000.0,0002.84,0002.46,0002.25
2021-11-03 14:47:00,,0833.2,5.01,0.00,23.5,22.5,00.0,32.4,25.3,23.2,0000.0,0002.79,0002.45,0002.25
2021-11-03 14:48:00,,0833.3,4.99,0.00,23.5,22.5,00.0,32.4,25.2,23.4,0000.0,0002.85,0002.46,0002.27
2021-11-03 14:49:00,,0833.3,5.00,0.00,23.5,22.6,00.0,32.4,25.3,23.7,0000.0,0002.84,0002.47,0002.28
2021-11-03 14:50:00,,0833.3,5.00,0.00,23.5,22.6,00.0,32.5,25.3,23.9,0000.0,0002.84,0002.48,0002.30
2021-11-03 14:51:00,,0833.3,5.00,0.00,23.5,22.6,00.0,32.5,25.4,23.4,0000.0,0002.76,0002.46,0002.32
2021-11-03 14:52:00,,0833.3,5.00,0.00,23.6,22.7,00.0,32.5,25.4,23.8,0000.0,0002.64,0002.42,0002.32
2021-11-03 14:53:00,,0833.3,4.99,0.00,23.6,22.7,00.0,32.5,25.4,24.6,0000.0,0002.59,0002.41,0002.32
2021-11-03 14:54:00,,0833.3,5.01,0.00,23.6,22.8,00.0,32.5,25.4,26.0,0000.0,0002.57,0002.40,0002.33
2021-11-03 14:55:00,,0833.3,5.00,0.00,23.6,22.8,00.0,32.5,25.4,26.0,0000.0,0002.62,0002.40,0002.33
2021-11-03 14:56:00,,0833.3,4.99,0.00,23.6,22.8,00.0,32.5,25.5,24.4,0000.0,0002.78,0002.46,0002.34
2021-11-03 14:57:00,,0833.3,5.01,0.00,23.6,22.8,00.0,32.5,25.5,24.7,0000.0,0002.78,0002.46,0002.35
2021-11-03 14:58:00,,0833.3,5.00,0.00,23.6,22.8,00.0,32.6,25.5,24.4,0000.0,0002.79,0002.47,0002.36
2021-11-03 14:59:00,,0833.3,5.00,0.00,23.7,22.9,00.0,32.6,25.5,24.9,0000.0,0002.75,0002.50,0002.37
